Regional Weather Roundup
Issued by NWS

Home | Current Version | Previous Version | Graphics & Text | Print | Product List | Glossary On
Versions: 1 2 3 4 5 6 7 8 9 10 11 12 13 14 15 16 17 18 19 20 21 22 23 24 25 26 27 28 29 30 31 32 33 34 35 36 37 38 39 40 41 42 43 44 45 46 47 48 49 50
000
ASUS43 KDTX 280410
RWRMI
MICHIGAN HOURLY REGIONAL WEATHER ROUNDUP
NATIONAL WEATHER SERVICE DETROIT/PONTIAC MI
1200 AM EDT THU AUG 28 2014

NOTE: "FAIR" INDICATES FEW OR NO CLOUDS BELOW 12,000 FEET WITH NO
SIGNIFICANT WEATHER AND/OR OBSTRUCTION TO VISIBILITY.

MIZ047>049-052>055-059>063-066>070-074>076-081>083-280500-
SOUTHEAST LOWER MICHIGAN

CITY           SKY/WX    TMP DP  RH WIND       PRES   REMARKS
ADRIAN         MOCLDY    62  60  93 CALM      30.12S
ALMA           PTCLDY    56  51  82 CALM      30.16R
ANN ARBOR      FOG       58  55  90 CALM      30.11S VSB 1
BAD AXE        MOCLDY    58  54  86 CALM      30.15R
CARO           MOCLDY    58  56  93 CALM      30.15R
DETROIT CITY   PTCLDY    65  55  70 E5        30.13R
DETROIT        MOCLDY    66  59  78 E5        30.12R
FLINT          CLOUDY    68  56  65 N8        30.13R
GROSSE ILE     PTCLDY    64  59  82 E6        30.11R
HILLSDALE      PTCLDY    59  59  99 CALM      30.13S
HOWELL         MOCLDY    64  60  87 CALM      30.13R

CITY           SKY/WX    TMP DP  RH WIND       PRES   REMARKS
JACKSON        PTCLDY    61  59  93 CALM      30.12S
LAMBERTVILLE   MOCLDY    63  59  88 CALM      30.11S
LANSING        PTCLDY    63  54  72 N8        30.15R
LAPEER         CLOUDY    61  55  81 E3        30.15S
MASON          CLOUDY    63  60  93 N6        30.13S
MONROE         PTCLDY    64  61  88 E6        30.10R
MT. CLEMENS    CLOUDY    62  54  73 NE9       30.12R
PONTIAC        MOCLDY    64  56  75 E9        30.13R
PORT HOPE        N/A     62  52  69 CALM      30.13R
PORT HURON     MOCLDY    54  54 100 CALM      30.14R
TRI CITIES     PTCLDY    61  52  72 N7        30.16R
TROY           MOCLDY    66  53  63 NE7       30.14S
SAGINAW HB     MOCLDY    61  59  94 NE3       30.14S
$$
MIZ043>046-050>051-056>058-064>065-071>073-077>080-280500-
SOUTHWEST LOWER MICHIGAN

CITY           SKY/WX    TMP DP  RH WIND       PRES   REMARKS
BATTLE CREEK   PTCLDY    64  57  78 N7        30.14S
BENTON HARBOR  PTCLDY    59  57  93 CALM      30.14S
BIG RAPIDS     CLEAR     54  53  96 CALM      30.17R
COLDWATER      MOCLDY    64  62  91 CALM      30.13S
FREMONT        FAIR      56  53  88 CALM      30.16R
HOLLAND        PTCLDY    64  54  69 NE3       30.15S
GRAND RAPIDS   CLEAR     61  59  93 NE7       30.15S
IONIA          FAIR      60  55  83 NE7       30.15S
KALAMAZOO      PTCLDY    63  57  81 N6        30.14R
LUDINGTON      CLEAR     55  53  95 CALM      30.17R FOG
MARSHALL       PTCLDY    63  59  87 CALM      30.12F
MOUNT PLEASANT MOCLDY    58  50  75 CALM      30.16R
MUSKEGON       CLEAR     61  53  75 NE3       30.16R
SOUTH HAVEN    PTCLDY    60  58  94 CALM      30.14S
$$
MIZ016>042-280500-
NORTHERN LOWER MICHIGAN

CITY           SKY/WX    TMP DP  RH WIND       PRES   REMARKS
ALPENA         CLEAR     52  46  80 NW5       30.16R
BEAVER ISLAND  CLEAR     47  46  95 CALM      30.17F
BELLAIRE       CLEAR     49  48  95 CALM      30.17R
CADILLAC       CLEAR     46  45  97 CALM      30.18R
CHARLEVOIX     CLEAR     60  45  58 E3        30.19S
FRANKFORT      CLEAR     52  48  87 CALM      30.17R
GAYLORD        CLEAR     53  42  66 N3        30.17S
GRAYLING       CLEAR     49  49 100 NW3       30.18S
HARBOR SPRINGS CLEAR     50  46  86 N5        30.17S
HOUGHTON LAKE  CLEAR     48  47  96 CALM      30.18R
MANISTEE       CLEAR     50  46  87 E5        30.17S
OSCODA         CLEAR     53  49  86 N3        30.15R
PELLSTON       CLEAR     44  42  93 CALM      30.18R
ROGERS CITY    CLEAR     54  48  82 W6        30.16S
TRAVERSE CITY  PTCLDY    54  49  83 CALM      30.16R
$$
MIZ007>008-015-280500-
EASTERN UPPER MICHIGAN

CITY           SKY/WX    TMP DP  RH WIND       PRES   REMARKS
KINROSS        CLEAR     48  46  93 W5        30.15F
MACKINAC ISLAN CLEAR     49  46  87 NW6       30.16S
NEWBERRY       CLEAR     42  40  93 NW3       30.16S
S. S. MARIE    CLEAR     51  46  83 W5        30.15R
MUNISING         N/A     48  43  82 S8        30.16S
$$
MIZ004>006-011>014-085-280500-
CENTRAL UPPER MICHIGAN

CITY           SKY/WX    TMP DP  RH WIND       PRES   REMARKS
MANISTIQUE     CLEAR     43  42  95 CALM      30.17S
ESCANABA       MOCLDY    57  45  62 NE5       30.17S
MENOMINEE      MOCLDY    57  55  94 SE10      30.14R
SAWYER-GWINN   PTCLDY    48  44  85 CALM      30.18S
$$
MIZ001>003-009>011-084-280500-
WESTERN UPPER MICHIGAN

CITY           SKY/WX    TMP DP  RH WIND       PRES   REMARKS
IRON MOUNTAIN  CLEAR     53  48  83 CALM      30.17R
HOUGHTON       PTCLDY    50  44  80 NW5       30.16F
COPPER HARBOR    N/A     54  44  69 VRB6      30.15F
$$

ABBREVIATIONS USED IN REMARKS
   TC - TEMPERATURE IN CELSIUS
  WCI - WIND CHILL INDEX
   HX - HEAT INDEX
  VSB - VISIBILITY




USA.gov is the U.S. government's official web portal to all federal, state and local government web resources and services.